| time (UTC) | temp C | wind direction | speed KPH | gust KPH | rain 1hr cm | rain 24hr cm | rain mn cm | humidity % | barometer mb |
| 20260503195829 | 28 | 324 | 1.6 | 8.0 | 0.00 | 0.00 | 0.00 | 33 | 1010.9 |
| 20260503195335 | 29 | 160 | 0.0 | 6.4 | 0.00 | 0.00 | 0.00 | 35 | 1010.9 |
| 20260503194818 | 28 | 45 | 0.0 | 3.2 | 0.00 | 0.00 | 0.00 | 37 | 1011.0 |
| 20260503194318 | 27 | 345 | 0.0 | 6.4 | 0.00 | 0.00 | 0.00 | 39 | 1011.0 |
| 20260503193828 | 27 | 325 | 1.6 | 8.0 | 0.00 | 0.00 | 0.00 | 39 | 1011.0 |
| 20260503193348 | 27 | 305 | 1.6 | 9.7 | 0.00 | 0.00 | 0.00 | 41 | 1011.1 |
| 20260503192837 | 27 | 349 | 3.2 | 9.7 | 0.00 | 0.00 | 0.00 | 42 | 1011.1 |
| 20260503192336 | 26 | 338 | 0.0 | 1.6 | 0.00 | 0.00 | 0.00 | 42 | 1011.2 |
| 20260503191845 | 26 | 314 | 0.0 | 8.0 | 0.00 | 0.00 | 0.00 | 42 | 1011.3 |
| 20260503191351 | 27 | 347 | 1.6 | 8.0 | 0.00 | 0.00 | 0.00 | 39 | 1011.3 |
| 20260503190833 | 27 | 134 | 0.0 | 1.6 | 0.00 | 0.00 | 0.00 | 40 | 1011.3 |
| 20260503190339 | 26 | 50 | 0.0 | 1.6 | 0.00 | 0.00 | 0.00 | 42 | 1011.5 |
| 20260503185845 | 26 | 20 | 0.0 | 6.4 | 0.00 | 0.00 | 0.00 | 42 | 1011.5 |
| 20260503185351 | 26 | 334 | 3.2 | 6.4 | 0.00 | 0.00 | 0.00 | 42 | 1011.6 |
| 20260503184901 | 26 | 122 | 0.0 | 6.4 | 0.00 | 0.00 | 0.00 | 43 | 1011.7 |
| 20260503184426 | 26 | 328 | 0.0 | 1.6 | 0.00 | 0.00 | 0.00 | 42 | 1011.7 |
| 20260503183841 | 25 | 120 | 0.0 | 1.6 | 0.00 | 0.00 | 0.00 | 44 | 1011.8 |
| 20260503183343 | 25 | 11 | 0.0 | 3.2 | 0.00 | 0.00 | 0.00 | 46 | 1011.8 |
| 20260503182834 | 25 | 337 | 0.0 | 3.2 | 0.00 | 0.00 | 0.00 | 44 | 1011.8 |
| 20260503182358 | 25 | 2 | 0.0 | 0.0 | 0.00 | 0.00 | 0.00 | 45 | 1011.9 |
| 20260503181840 | 25 | 359 | 0.0 | 1.6 | 0.00 | 0.00 | 0.00 | 46 | 1011.9 |
| 20260503181346 | 24 | 27 | 0.0 | 12.9 | 0.00 | 0.00 | 0.00 | 49 | 1011.9 |
| 20260503180815 | 23 | 11 | 3.2 | 12.9 | 0.00 | 0.00 | 0.00 | 48 | 1011.9 |
| 20260503180316 | 23 | 349 | 0.0 | 1.6 | 0.00 | 0.00 | 0.00 | 48 | 1012.0 |
| 20260503175826 | 23 | 122 | 0.0 | 3.2 | 0.00 | 0.00 | 0.00 | 50 | 1012.0 |
| 20260503175325 | 23 | 46 | 1.6 | 3.2 | 0.00 | 0.00 | 0.00 | 50 | 1012.1 |
| 20260503174829 | 23 | 79 | 0.0 | 1.6 | 0.00 | 0.00 | 0.00 | 51 | 1012.1 |
| 20260503174335 | 23 | 44 | 0.0 | 4.8 | 0.00 | 0.00 | 0.00 | 49 | 1012.1 |
| 20260503173818 | 23 | 353 | 0.0 | 0.0 | 0.00 | 0.00 | 0.00 | 50 | 1012.1 |
| 20260503173318 | 23 | 130 | 0.0 | 4.8 | 0.00 | 0.00 | 0.00 | 52 | 1012.1 |
| 20260503172829 | 22 | 141 | 0.0 | 4.8 | 0.00 | 0.00 | 0.00 | 53 | 1012.1 |
| 20260503172328 | 22 | 42 | 0.0 | 1.6 | 0.00 | 0.00 | 0.00 | 51 | 1012.3 |
| 20260503171831 | 22 | 348 | 0.0 | 6.4 | 0.00 | 0.00 | 0.00 | 54 | 1012.2 |
| 20260503171311 | 22 | 330 | 0.0 | 6.4 | 0.00 | 0.00 | 0.00 | 54 | 1012.2 |
| 20260503170818 | 21 | 20 | 0.0 | 6.4 | 0.00 | 0.00 | 0.00 | 57 | 1012.2 |
| 20260503170318 | 21 | 318 | 1.6 | 6.4 | 0.00 | 0.00 | 0.00 | 57 | 1012.3 |
| 20260503150821 | 17 | 75 | 0.0 | 0.0 | 0.00 | 0.00 | 0.00 | 75 | 1012.6 |
| 20260503150316 | 17 | 127 | 0.0 | 0.0 | 0.00 | 0.00 | 0.00 | 77 | 1012.6 |
| 20260503131329 | 15 | 356 | 0.0 | 6.4 | 0.00 | 0.00 | 0.00 | 80 | 1012.2 |
| 20260503130819 | 14 | 20 | 1.6 | 6.4 | 0.00 | 0.00 | 0.00 | 80 | 1012.1 |
| 20260503130318 | 14 | 48 | 0.0 | 0.0 | 0.00 | 0.00 | 0.00 | 80 | 1012.0 |
| 20260503110314 | 15 | 18 | 0.0 | 4.8 | 0.00 | 0.03 | 0.00 | 80 | 1012.4 |
| 20260503090319 | 15 | 282 | 0.0 | 0.0 | 0.00 | 0.05 | 0.00 | 89 | 1012.8 |
| 20260503081318 | 15 | 335 | 0.0 | 0.0 | 0.00 | 0.05 | 0.00 | 86 | 1012.7 |
| 20260503080828 | 15 | 335 | 0.0 | 0.0 | 0.00 | 0.05 | 0.00 | 85 | 1012.7 |
| 20260503080328 | 15 | 335 | 0.0 | 0.0 | 0.00 | 0.05 | 0.00 | 85 | 1012.8 |
| 20260503072820 | 16 | 335 | 0.0 | 0.0 | 0.00 | 0.05 | 0.00 | 81 | 1012.9 |
| 20260503072320 | 16 | 335 | 0.0 | 0.0 | 0.00 | 0.05 | 0.00 | 81 | 1012.9 |
| 20260503071830 | 16 | 335 | 0.0 | 0.0 | 0.00 | 0.05 | 0.00 | 81 | 1012.9 |
| 20260503071330 | 16 | 335 | 0.0 | 0.0 | 0.00 | 0.05 | 0.00 | 82 | 1013.0 |
| 20260503070813 | 16 | 323 | 0.0 | 0.0 | 0.00 | 0.05 | 0.00 | 82 | 1013.0 |
| 20260503070320 | 16 | 203 | 0.0 | 0.0 | 0.00 | 0.05 | 0.05 | 82 | 1013.0 |
| 20260503060312 | 16 | 136 | 0.0 | 0.0 | 0.00 | 0.05 | 0.05 | 82 | 1013.1 |
| 20260503054833 | 16 | 193 | 0.0 | 3.2 | 0.00 | 0.05 | 0.05 | 82 | 1013.0 |
| 20260503054332 | 16 | 207 | 0.0 | 3.2 | 0.00 | 0.05 | 0.05 | 82 | 1013.0 |
| 20260503053841 | 16 | 198 | 0.0 | 0.0 | 0.00 | 0.05 | 0.05 | 82 | 1012.9 |
| 20260503053347 | 16 | 120 | 0.0 | 0.0 | 0.00 | 0.05 | 0.05 | 82 | 1012.8 |
| 20260503052857 | 16 | 119 | 0.0 | 0.0 | 0.00 | 0.05 | 0.05 | 82 | 1012.8 |
| 20260503052343 | 16 | 122 | 0.0 | 0.0 | 0.00 | 0.05 | 0.05 | 82 | 1012.8 |
| 20260503051848 | 16 | 134 | 0.0 | 0.0 | 0.00 | 0.05 | 0.05 | 82 | 1012.8 |
| 20260503051354 | 16 | 127 | 0.0 | 0.0 | 0.00 | 0.05 | 0.05 | 82 | 1012.9 |
| 20260503050816 | 16 | 292 | 0.0 | 0.0 | 0.00 | 0.05 | 0.05 | 82 | 1012.8 |
| 20260503050315 | 16 | 13 | 0.0 | 0.0 | 0.00 | 0.05 | 0.05 | 82 | 1012.9 |
| 20260503045818 | 16 | 75 | 0.0 | 0.0 | 0.00 | 0.05 | 0.05 | 81 | 1013.0 |
| 20260503045325 | 16 | 75 | 0.0 | 3.2 | 0.00 | 0.05 | 0.05 | 80 | 1013.1 |
| 20260503044812 | 17 | 106 | 0.0 | 4.8 | 0.00 | 0.05 | 0.05 | 79 | 1013.4 |
| 20260503044312 | 17 | 106 | 1.6 | 4.8 | 0.00 | 0.05 | 0.05 | 78 | 1013.2 |
| 20260503043822 | 17 | 323 | 0.0 | 6.4 | 0.00 | 0.05 | 0.05 | 78 | 1012.9 |
| 20260503043322 | 17 | 310 | 0.0 | 6.4 | 0.00 | 0.05 | 0.05 | 78 | 1012.8 |
| 20260503042832 | 17 | 305 | 0.0 | 3.2 | 0.00 | 0.05 | 0.05 | 78 | 1012.8 |
| 20260503042312 | 17 | 337 | 0.0 | 3.2 | 0.00 | 0.05 | 0.05 | 78 | 1012.9 |
| 20260503041815 | 17 | 311 | 0.0 | 0.0 | 0.00 | 0.05 | 0.05 | 79 | 1012.8 |
| 20260503041315 | 17 | 312 | 0.0 | 0.0 | 0.00 | 0.05 | 0.05 | 79 | 1012.8 |
| 20260503040825 | 16 | 317 | 0.0 | 0.0 | 0.00 | 0.05 | 0.05 | 80 | 1012.9 |
| 20260503040325 | 16 | 335 | 0.0 | 0.0 | 0.00 | 0.05 | 0.05 | 81 | 1013.0 |
| 20260503035835 | 16 | 335 | 0.0 | 0.0 | 0.00 | 0.05 | 0.05 | 81 | 1013.0 |
| 20260503035315 | 16 | 335 | 0.0 | 0.0 | 0.00 | 0.05 | 0.05 | 80 | 1013.0 |
| 20260503034818 | 16 | 335 | 0.0 | 0.0 | 0.00 | 0.05 | 0.05 | 80 | 1013.0 |
| 20260503034325 | 16 | 335 | 0.0 | 0.0 | 0.00 | 0.05 | 0.05 | 80 | 1012.9 |
| 20260503033827 | 17 | 335 | 0.0 | 0.0 | 0.00 | 0.05 | 0.05 | 79 | 1012.9 |
| 20260503033327 | 17 | 335 | 0.0 | 0.0 | 0.00 | 0.05 | 0.05 | 79 | 1012.8 |
| 20260503032837 | 17 | 335 | 0.0 | 0.0 | 0.00 | 0.05 | 0.05 | 78 | 1012.7 |
| 20260503032358 | 17 | 335 | 0.0 | 0.0 | 0.00 | 0.05 | 0.05 | 78 | 1012.7 |
| 20260503031822 | 17 | 335 | 0.0 | 0.0 | 0.00 | 0.05 | 0.05 | 78 | 1012.6 |
| 20260503031329 | 17 | 335 | 0.0 | 0.0 | 0.00 | 0.05 | 0.05 | 78 | 1012.5 |
| 20260503030812 | 17 | 354 | 0.0 | 0.0 | 0.00 | 0.05 | 0.05 | 77 | 1012.4 |
| 20260503030326 | 17 | 319 | 0.0 | 0.0 | 0.00 | 0.05 | 0.05 | 78 | 1012.6 |
| 20260503025829 | 17 | 164 | 0.0 | 0.0 | 0.00 | 0.05 | 0.05 | 78 | 1012.5 |
| 20260503025316 | 17 | 163 | 0.0 | 0.0 | 0.00 | 0.05 | 0.05 | 78 | 1012.5 |
| 20260503024826 | 17 | 162 | 0.0 | 8.0 | 0.00 | 0.05 | 0.05 | 77 | 1012.7 |
| 20260503024323 | 17 | 171 | 0.0 | 8.0 | 0.00 | 0.05 | 0.05 | 77 | 1012.7 |
| 20260503023825 | 17 | 203 | 0.0 | 11.3 | 0.00 | 0.05 | 0.05 | 78 | 1012.6 |
| 20260503023332 | 17 | 167 | 1.6 | 11.3 | 0.00 | 0.05 | 0.05 | 78 | 1012.8 |
| 20260503022815 | 17 | 182 | 0.0 | 8.0 | 0.00 | 0.05 | 0.05 | 77 | 1012.8 |
| 20260503022315 | 17 | 134 | 0.0 | 24.1 | 0.00 | 0.05 | 0.05 | 77 | 1012.8 |
| 20260503021826 | 17 | 155 | 0.0 | 24.1 | 0.00 | 0.05 | 0.05 | 77 | 1012.8 |
| 20260503021325 | 17 | 183 | 1.6 | 19.3 | 0.00 | 0.05 | 0.05 | 76 | 1012.9 |
| 20260503020836 | 18 | 162 | 3.2 | 27.4 | 0.00 | 0.05 | 0.05 | 75 | 1012.9 |
| 20260503020315 | 18 | 162 | 4.8 | 27.4 | 0.00 | 0.05 | 0.05 | 72 | 1013.0 |
| 20260503015818 | 19 | 157 | 4.8 | 14.5 | 0.00 | 0.05 | 0.05 | 70 | 1012.7 |
| 20260503015318 | 19 | 165 | 0.0 | 1.6 | 0.00 | 0.05 | 0.05 | 70 | 1012.3 |
| 20260503014828 | 19 | 170 | 0.0 | 1.6 | 0.00 | 0.05 | 0.05 | 70 | 1012.2 |
| 20260503014328 | 20 | 172 | 0.0 | 4.8 | 0.00 | 0.05 | 0.05 | 70 | 1012.1 |
| 20260503013838 | 20 | 201 | 0.0 | 4.8 | 0.00 | 0.05 | 0.05 | 69 | 1012.1 |
| 20260503013318 | 20 | 207 | 0.0 | 3.2 | 0.00 | 0.05 | 0.05 | 69 | 1012.0 |
| 20260503012321 | 20 | 198 | 0.0 | 1.6 | 0.00 | 0.05 | 0.05 | 67 | 1012.0 |
| 20260503011830 | 20 | 142 | 0.0 | 3.2 | 0.00 | 0.05 | 0.05 | 68 | 1012.0 |
| 20260503011330 | 20 | 195 | 0.0 | 0.0 | 0.00 | 0.05 | 0.05 | 67 | 1012.0 |
| 20260503010813 | 20 | 312 | 0.0 | 0.0 | 0.00 | 0.05 | 0.05 | 66 | 1011.9 |
| 20260503010320 | 21 | 196 | 0.0 | 0.0 | 0.00 | 0.05 | 0.05 | 65 | 1012.0 |
| 20260503005823 | 21 | 196 | 0.0 | 0.0 | 0.00 | 0.05 | 0.05 | 66 | 1011.9 |
| 20260503005323 | 21 | 195 | 0.0 | 6.4 | 0.00 | 0.05 | 0.05 | 66 | 1011.9 |
| 20260503004316 | 21 | 295 | 0.0 | 6.4 | 0.00 | 0.05 | 0.05 | 65 | 1012.0 |
| 20260503003815 | 21 | 295 | 0.0 | 0.0 | 0.00 | 0.05 | 0.05 | 64 | 1012.0 |
| 20260503003324 | 21 | 288 | 0.0 | 0.0 | 0.00 | 0.05 | 0.05 | 64 | 1011.9 |
| 20260503002826 | 21 | 291 | 0.0 | 0.0 | 0.00 | 0.05 | 0.05 | 63 | 1011.9 |
| 20260503002326 | 21 | 276 | 0.0 | 0.0 | 0.00 | 0.05 | 0.05 | 62 | 1011.9 |
| 20260503001836 | 21 | 286 | 0.0 | 0.0 | 0.00 | 0.05 | 0.05 | 62 | 1011.8 |
| 20260503001316 | 21 | 204 | 0.0 | 0.0 | 0.00 | 0.05 | 0.05 | 63 | 1011.9 |
| 20260503000819 | 21 | 141 | 0.0 | 0.0 | 0.00 | 0.05 | 0.05 | 62 | 1011.9 |
| 20260503000326 | 21 | 266 | 0.0 | 0.0 | 0.00 | 0.05 | 0.05 | 63 | 1012.0 |
| 20260502235826 | 21 | 122 | 0.0 | 0.0 | 0.00 | 0.05 | 0.05 | 61 | 1012.0 |
| 20260502235326 | 21 | 207 | 0.0 | 0.0 | 0.00 | 0.05 | 0.05 | 62 | 1012.0 |
| 20260502234816 | 21 | 304 | 0.0 | 0.0 | 0.00 | 0.05 | 0.05 | 61 | 1012.0 |
| 20260502234316 | 21 | 304 | 0.0 | 0.0 | 0.00 | 0.05 | 0.05 | 62 | 1012.0 |
| 20260502233819 | 20 | 245 | 0.0 | 1.6 | 0.00 | 0.05 | 0.05 | 62 | 1012.1 |
| 20260502233325 | 21 | 3 | 0.0 | 1.6 | 0.00 | 0.05 | 0.05 | 61 | 1012.2 |
| 20260502232828 | 21 | 333 | 0.0 | 4.8 | 0.00 | 0.05 | 0.05 | 62 | 1012.3 |
| 20260502232336 | 21 | 344 | 1.6 | 4.8 | 0.00 | 0.05 | 0.05 | 63 | 1012.4 |
| 20260502231818 | 20 | 352 | 0.0 | 1.6 | 0.00 | 0.05 | 0.05 | 64 | 1012.4 |
| 20260502231318 | 20 | 338 | 0.0 | 1.6 | 0.00 | 0.05 | 0.05 | 64 | 1012.4 |
| 20260502230821 | 20 | 39 | 0.0 | 1.6 | 0.00 | 0.05 | 0.05 | 63 | 1012.5 |
| 20260502230328 | 20 | 112 | 0.0 | 3.2 | 0.00 | 0.05 | 0.05 | 66 | 1012.5 |
| 20260502225831 | 20 | 29 | 0.0 | 3.2 | 0.00 | 0.05 | 0.05 | 66 | 1012.6 |
| 20260502225311 | 20 | 36 | 0.0 | 6.4 | 0.00 | 0.05 | 0.05 | 65 | 1012.7 |
| 20260502224821 | 20 | 120 | 0.0 | 6.4 | 0.00 | 0.05 | 0.05 | 63 | 1012.8 |
| 20260502224320 | 20 | 129 | 0.0 | 3.2 | 0.00 | 0.05 | 0.05 | 63 | 1012.9 |
| 20260502223829 | 20 | 300 | 0.0 | 0.0 | 0.00 | 0.05 | 0.05 | 64 | 1012.9 |
| 20260502223311 | 20 | 302 | 0.0 | 4.8 | 0.00 | 0.05 | 0.05 | 65 | 1012.9 |
| 20260502222813 | 19 | 334 | 0.0 | 4.8 | 0.00 | 0.05 | 0.05 | 65 | 1013.0 |
| 20260502222319 | 20 | 42 | 0.0 | 6.4 | 0.00 | 0.05 | 0.05 | 64 | 1013.1 |
| 20260502221828 | 20 | 335 | 3.2 | 6.4 | 0.00 | 0.05 | 0.05 | 62 | 1013.3 |
| 20260502221334 | 21 | 49 | 0.0 | 0.0 | 0.00 | 0.05 | 0.05 | 63 | 1013.3 |
| 20260502220815 | 20 | 161 | 0.0 | 0.0 | 0.00 | 0.05 | 0.05 | 64 | 1013.3 |
| 20260502220314 | 19 | 203 | 0.0 | 8.0 | 0.00 | 0.05 | 0.05 | 66 | 1013.3 |
| 20260502215824 | 18 | 182 | 1.6 | 8.0 | 0.00 | 0.05 | 0.05 | 66 | 1013.4 |
| 20260502215324 | 19 | 159 | 3.2 | 6.4 | 0.00 | 0.05 | 0.05 | 66 | 1013.5 |
| 20260502214834 | 19 | 167 | 0.0 | 0.0 | 0.00 | 0.05 | 0.05 | 67 | 1013.7 |
| 20260502214314 | 18 | 6 | 0.0 | 8.0 | 0.00 | 0.05 | 0.05 | 67 | 1013.7 |
| 20260502213817 | 19 | 4 | 1.6 | 8.0 | 0.00 | 0.05 | 0.05 | 66 | 1013.7 |
| 20260502213325 | 19 | 221 | 0.0 | 4.8 | 0.00 | 0.05 | 0.05 | 67 | 1013.8 |
| 20260502212827 | 18 | 207 | 1.6 | 4.8 | 0.00 | 0.05 | 0.05 | 66 | 1013.9 |
| 20260502212328 | 19 | 103 | 0.0 | 1.6 | 0.00 | 0.05 | 0.05 | 67 | 1013.9 |
| 20260502211837 | 19 | 75 | 0.0 | 0.0 | 0.00 | 0.05 | 0.05 | 67 | 1014.0 |
| 20260502211317 | 18 | 285 | 0.0 | 0.0 | 0.00 | 0.05 | 0.05 | 70 | 1014.1 |
| 20260502210820 | 18 | 240 | 0.0 | 8.0 | 0.00 | 0.05 | 0.05 | 71 | 1014.2 |
| 20260502210327 | 17 | 182 | 1.6 | 11.3 | 0.00 | 0.05 | 0.05 | 73 | 1014.2 |
| 20260502205830 | 16 | 197 | 3.2 | 11.3 | 0.00 | 0.05 | 0.05 | 73 | 1014.2 |
| 20260502205330 | 16 | 32 | 0.0 | 4.8 | 0.00 | 0.05 | 0.05 | 74 | 1014.3 |
| 20260502204813 | 16 | 346 | 0.0 | 8.0 | 0.00 | 0.05 | 0.05 | 74 | 1014.4 |
| 20260502204320 | 16 | 335 | 3.2 | 12.9 | 0.00 | 0.05 | 0.05 | 75 | 1014.5 |
| 20260502203337 | 16 | 329 | 1.6 | 8.0 | 0.00 | 0.05 | 0.05 | 74 | 1014.7 |
| 20260502202820 | 16 | 309 | 0.0 | 6.4 | 0.00 | 0.05 | 0.05 | 74 | 1014.8 |
| 20260502202320 | 17 | 345 | 1.6 | 6.4 | 0.00 | 0.05 | 0.05 | 71 | 1014.8 |
| 20260502201822 | 16 | 162 | 0.0 | 3.2 | 0.00 | 0.05 | 0.05 | 74 | 1014.8 |
| 20260502201329 | 16 | 321 | 0.0 | 1.6 | 0.00 | 0.05 | 0.05 | 75 | 1014.9 |
| 20260502200812 | 15 | 292 | 0.0 | 4.8 | 0.00 | 0.05 | 0.05 | 78 | 1014.9 |
| 20260502200312 | 15 | 333 | 0.0 | 4.8 | 0.00 | 0.05 | 0.05 | 78 | 1015.0 |